Tracking 19831 objects as of 23-Aug-2019
HD Live streaming from Space Station
objects crossing your sky now

FENGYUN 1C DEB

Track FENGYUN 1C DEB now!
10-day predictions


NORAD ID: 38721
Int'l Code: 1999-025ETN
Perigee: 786.8 km
Apogee: 903.5 km
Inclination: 98.9 °
Period: 101.7 minutes
Semi major axis: 7216 km
RCS: 0.0013 m2 (small)
Launch date: May 10, 1999
Source: People's Republic of China (PRC)
Launch site: Taiyaun Space Center, China (TSC)

Note: This is SATELLITE DEBRIS
aabbcc
Your satellite tracking list
Your tracking list is empty




NASA's NSSDC Master Catalog

Two Line Element Set (TLE):
1 38721U 99025ETN 19233.97654500 +.00000476 +00000-0 +25436-3 0  9990
2 38721 098.9316 306.5036 0080829 128.7832 232.0597 14.16257595306080
Source of the keplerian elements: AFSPC